User: anonymous   Login
Location: Unspecified
(34.4500°N, 0.0000°E)
Time: 08:23:50
(UTC+00:00)
Language:

CUBEBUG 2 - Orbit

View from above orbital plane
View from above orbital plane
View from above satellite
View from above satellite

Ground track
Ground track

The orbit data is extracted from the following two-line orbital elements,

1 39440U 13066AA  21128.86806713  .00000227  00000-0  38407-4 0  9996
2 39440  97.6732 100.1729 0080087   5.1171 355.0840 14.76224334401785
Epoch (UTC): 08 May 2021 20:50:01
Eccentricity: 0.0080087
inclination: 97.6732°
perigee height: 585 km
apogee height: 697 km
right ascension of ascending node: 100.1729°
argument of perigee: 5.1171°
revolutions per day: 14.76224334
mean anomaly at epoch: 355.0840°
orbit number at epoch: 40178

The dashed part of the orbit path shows where the satellite is in the earth's shadow,  

DLR